Location: Bercimuel
(41.3983°N, 3.5711°W)
Time: 21:24:55
(UTC+00:00)

CZ-2C R/B - Pass Details

Date: 15 May 2026
Orbit: 331 x 343 km, 97.7° (Epoch: 10 June)

Event Time Altitude Azimuth Distance (km) Brightness Sun altitude
Exits shadow 21:54:37 26° 8° (N) 701 3.8 -21.8°
Drops below altitude 10° 21:56:01 10° 357° (N) 1,271 5.5 -22.0°
Sets 21:57:56 0° 352° (N) 2,114 6.9 -22.2°
